Orbital Elements at Epoch 2459200.5 (2020-Dec-17.0) TDB
Reference: JPL 20 (heliocentric ecliptic J2000)
Element | Value | Uncertainty (1-sigma) | Units |
e | .1607383237926948 | 2.8069e-08 | |
a | 2.368687409921282 | 9.5528e-09 | au |
q | 1.987948566061676 | 6.7406e-08 | au |
i | 4.831110502337634 | 4.9518e-06 | deg |
node | 202.3933339204575 | 3.8717e-05 | deg |
peri | 90.99539054881038 | 4.2078e-05 | deg |
M | 110.8134862246788 | 1.6856e-05 | deg |
tp | 2458790.626187188067 (2019-Nov-03.12618719) | 6.1726e-05 | TDB |
period | 1331.557896419964 3.65 | 8.0552e-06 2.205e-08 | d yr |
n | .270360005350048 | 1.6355e-09 | deg/d |
Q | 2.749426253780888 | 1.1088e-08 | au |
|
| | Orbit Determination Parameters
Additional Information
|